Regional Weather Roundup
Issued by NWS Newport/Morehead, NC

Current Version | Previous Version | Graphics & Text | Print | Product List | Glossary On
Versions: 1 2 3 4 5 6 7 8 9 10 11 12 13 14 15 16 17 18 19 20 21 22 23 24 25 26 27 28 29 30 31 32 33 34 35 36 37 38 39 40 41 42 43 44 45 46 47 48 49 50
000 ASUS42 KMHX 230122 RWRMHX WEATHER ROUNDUP FOR EASTERN NORTH CAROLINA NATIONAL WEATHER SERVICE NEWPORT/MOREHEAD CITY NC 900 PM EDT WED OCT 22 2014 NOTE: "FAIR" INDICATES FEW OR NO CLOUDS BELOW 12,000 FEET WITH NO SIGNIFICANT WEATHER AND/OR OBSTRUCTIONS TO VISIBILITY NCZ015>017-031-032-045>047-102-103-230200- NORTH COAST CITY SKY/WX TMP DP RH WIND PRES REMARKS EDENTON CLOUDY 56 49 76 NW10G21 29.94R ELIZABETH CITY CLOUDY 58 49 72 NW16G25 29.90R KITTY HAWK CLOUDY 56 51 81 NW18G26 29.86R MANTEO CLOUDY 57 50 77 NW21G31 29.89R $$ NCZ045>047-081-094-103-104-230200- CENTRAL COAST CITY SKY/WX TMP DP RH WIND PRES REMARKS FRISCO CLOUDY 58 51 78 NW17G28 29.89R SWANQUARTER N/A 57 N/A N/A NW15 29.88S $$ NCZ095-097-098-100-101-230200- SOUTHERN COAST CITY SKY/WX TMP DP RH WIND PRES REMARKS BEAUFORT PTCLDY 59 50 72 NW12 29.96R CEDAR ISLAND N/A 59 N/A N/A NW26G33 29.97R JACKSONVILLE MOCLDY 56 47 71 W9 29.97R PINEY ISLAND CLEAR 61 48 62 NW17G25 29.94R WILMINGTON CLEAR 57 47 69 NW8 29.99R $$ NCZ011>013-027>030-043-044-078>080-089-090>093-098-230200- COASTAL PLAIN CITY SKY/WX TMP DP RH WIND PRES REMARKS AHOSKIE CLOUDY 55 47 72 NW3 29.97R CLINTON CLEAR 56 46 66 NW3 30.01R ELIZABETHTOWN CLEAR 58 45 61 NW7 30.01R GOLDSBORO CLOUDY 59 48 66 CALM 29.97R GREENVILLE CLOUDY 55 50 82 N7 29.99R HAVELOCK CLOUDY 58 49 72 NW7 29.97R KENANSVILLE CLEAR 55 43 64 W3 30.00R KINSTON MOCLDY 59 48 67 CALM 29.99R NEW BERN CLOUDY 60 49 66 NW7 29.97R RICHLANDS MOCLDY 54 45 71 W3 29.99R ROCKY MOUNT CLOUDY 59 48 67 N6 29.98R WASHINGTON CLOUDY 56 47 72 N8 29.97R WHITEVILLE CLEAR 56 46 69 CALM 30.02R $$ AMZ130-135-150-152-154-156-158-170-250-252-270-ANZ085-086-088-633-658-670-230200- MARINE OBSERVATIONS STATION/POSITION TIME TEMP WIND PRES WAVE SWELL AIR SEA DIR/SP/G HT/PER HT/PER (UTC) (F) (DEG/KT/KT) (MB) (FT/S) (FT/S) CHESAPEAKE LIGHT 0100 58 340/ 32/ 37 1010.4 64 E VA BEACH 0100 62 69 340/ 29/ 35 1006.8 10/ 7 DUCK 0100 56 68 310/ 20/ 27 1010.2 2 E DUCK 0100 N/A 4/ 6 10 NE DUCK 0100 70 N/A 7/ 6 OREGON INLET 0100 58 64 300/ 18/ 27 1011.2 13E OREGON INLT 0100 72 N/A 8/ 6 2/11 HATTERAS CG 0100 60 67 310/ 26/ 32 1012.6 DIAMOND BUOY 0100 62 310/ 27/ 33 1011.3 7/ 5 2/11 17 S OCRACOKE NOT AVBL CAPE LOOKOUT 0100 61 320/ 14/ 18 1014.0 BEAUFORT LAB 0100 59 69 320/ 7/ 11 1013.7 30 SE NEW RIVER 0100 66 76 310/ 21/ 27 1013.4 3/ 4 5 SE WRIGHTSVLE 0100 62 73 330/ 17/ 21 N/A 225 S CAPE HAT 0043 70 78 320/ 19/ 23 1013.9 7/ 6 2/10 41 SE CHARLESTON 0100 67 78 340/ 14/ 17 1016.3 3/ 6 2/ 9 $$

USA.gov is the U.S. government's official web portal to all federal, state and local government web resources and services.